Погода в Нижней Мактаме

Россия / Республика Татарстан     54°51′43″N   52°25′36″E
темп.,
°C
ветер,
м/с
пор.,
м/с
влажн.,
%
обл.,
%
осадки,
мм/ч
давл.,
гПа
погр.,
м
13 мая, чт
чт1300:00+15ю125096 0.0 102611
03:00+14вюв225214 0.0 102710
06:00+17вюв24525 0.0 1027146
09:00+22юв56395 0.0 1026927
12:00+25ююв57330 0.0 10261613
15:00+26ююв56345 0.0 10251618
18:00+22ююв36510 0.0 1024110
21:00+18юв32585 0.0 102519
14 мая, пт
пт1400:00+16ююв225876 0.0 102418
03:00+16юв3358100 0.0 102422
06:00+19ююв311553 0.0 1024363
09:00+24ю710365 0.0 1024644
12:00+27ююз79315 0.0 10241144
15:00+27ююз683028 0.0 10231499
18:00+23ююз3648100 0.0 1023114
21:00+19ю335451 0.0 102340
15 мая, сб
сб1500:00+17ю33577 0.0 102346
03:00+16ю335598 0.0 102334
06:00+18ю39556 0.0 1024222
09:00+25ююз58366 0.0 1023648
12:00+27ююз68285 0.0 10231327
15:00+28юз56285 0.0 10221791
18:00+24ю35451 0.0 102181
21:00+19ю33465 0.0 102126
16 мая, вс
вс1600:00+18ю33525 0.0 102128
03:00+17ю33546 0.0 102129
06:00+20ю35530 0.0 1021136
09:00+26ю56371 0.0 1021633
12:00+28ююз57301 0.0 10202778
15:00+28юз57275 0.0 10193110
18:00+25ю33445 0.0 101827
21:00+20ююз334798 0.0 101926
17 мая, пн
пн1700:00+19ю345256 0.0 101847
03:00+17ююз2258100 0.0 101913
06:00+20ююз1657100 0.0 1019187
09:00+25юз454270 0.0 1019463
12:00+28зюз44315 0.0 10181824
15:00+29зюз343019 0.0 10182677
18:00+23зсз71254100 0.0 1018348
21:00+19ю475639 0.0 1019113